NKS2237 KLAS-KIAH

Flight info

Callsign NKS2237
Flight time 2h 24m
Altitude 37000
Route NIITZ4 SSKEE GUP CNX SJT DIESL TTORO3
Aircraft A21N/M-SDE3FGHIRWY/LB1

Departure

Time 2026-05-03 20:58
Airport Harry Reid International Airport (KLAS)

Arrival

Time 2026-05-03 23:22
Airport George Bush Intercontinental Airport (KIAH)
Time Latitude Longitude Altitude Speed Heading
2026-05-03 20:15 36.08229 -115.15062 2126 ft 0 kts 337°
2026-05-03 20:44 36.08224 -115.15060 2126 ft 2 kts 334°
2026-05-03 20:44 36.08212 -115.15048 2126 ft 2 kts 311°
2026-05-03 20:44 36.08203 -115.15033 2126 ft 2 kts 293°
2026-05-03 20:45 36.08200 -115.15015 2125 ft 2 kts 275°
2026-05-03 20:45 36.08200 -115.14996 2125 ft 2 kts 257°
2026-05-03 20:45 36.08203 -115.14986 2125 ft 1 kts 245°
2026-05-03 20:45 36.08203 -115.14984 2125 ft 0 kts 244°
2026-05-03 20:48 36.08200 -115.14992 2125 ft 4 kts 239°
2026-05-03 20:48 36.08188 -115.15012 2125 ft 2 kts 230°
2026-05-03 20:48 36.08165 -115.15042 2127 ft 7 kts 226°
2026-05-03 20:49 36.08115 -115.15110 2130 ft 10 kts 235°
2026-05-03 20:49 36.08094 -115.15206 2132 ft 14 kts 278°
2026-05-03 20:49 36.08110 -115.15313 2136 ft 11 kts 283°
2026-05-03 20:49 36.08107 -115.15421 2138 ft 17 kts 214°
2026-05-03 20:50 36.07996 -115.15403 2140 ft 16 kts 157°
2026-05-03 20:50 36.07886 -115.15344 2140 ft 17 kts 156°
2026-05-03 20:50 36.07815 -115.15262 2138 ft 14 kts 87°
2026-05-03 20:50 36.07803 -115.15133 2134 ft 16 kts 98°
2026-05-03 20:51 36.07791 -115.14982 2130 ft 18 kts 93°
2026-05-03 20:51 36.07781 -115.14804 2123 ft 21 kts 94°
2026-05-03 20:51 36.07768 -115.14611 2117 ft 23 kts 95°
2026-05-03 20:51 36.07758 -115.14409 2111 ft 23 kts 94°
2026-05-03 20:52 36.07751 -115.14201 2104 ft 25 kts 90°
2026-05-03 20:52 36.07753 -115.13981 2098 ft 26 kts 90°
2026-05-03 20:52 36.07752 -115.13753 2092 ft 26 kts 89°
2026-05-03 20:52 36.07753 -115.13520 2085 ft 28 kts 90°
2026-05-03 20:53 36.07754 -115.13281 2080 ft 27 kts 90°
2026-05-03 20:53 36.07754 -115.13040 2074 ft 28 kts 91°
2026-05-03 20:53 36.07754 -115.12801 2070 ft 27 kts 91°
2026-05-03 20:53 36.07753 -115.12588 2067 ft 24 kts 89°
2026-05-03 20:54 36.07753 -115.12383 2064 ft 23 kts 90°
2026-05-03 20:54 36.07746 -115.12285 2063 ft 0 kts 107°
2026-05-03 20:55 36.07742 -115.12273 2063 ft 5 kts 121°
2026-05-03 20:56 36.07676 -115.12247 2063 ft 13 kts 205°
2026-05-03 20:56 36.07642 -115.12347 2064 ft 11 kts 271°
2026-05-03 20:56 36.07642 -115.12411 2065 ft 6 kts 270°
2026-05-03 20:56 36.07642 -115.12470 2066 ft 13 kts 270°
2026-05-03 20:57 36.07641 -115.12898 2072 ft 85 kts 270°
2026-05-03 20:57 36.07641 -115.13893 2097 ft 143 kts 270°
2026-05-03 20:57 36.07651 -115.15278 2273 ft 171 kts 269°
2026-05-03 20:57 36.07715 -115.16741 2756 ft 173 kts 270°
2026-05-03 20:58 36.07791 -115.18219 3296 ft 175 kts 267°
2026-05-03 20:58 36.07881 -115.19738 3866 ft 177 kts 267°
2026-05-03 20:58 36.07967 -115.21236 4433 ft 174 kts 266°
2026-05-03 20:58 36.07927 -115.22675 4772 ft 166 kts 252°
2026-05-03 20:59 36.07592 -115.24031 4965 ft 170 kts 244°
2026-05-03 20:59 36.07160 -115.25462 5128 ft 180 kts 238°
2026-05-03 20:59 36.06309 -115.26514 5302 ft 179 kts 200°
2026-05-03 20:59 36.05080 -115.26949 5505 ft 189 kts 193°
2026-05-03 21:00 36.03768 -115.27436 5682 ft 205 kts 196°
2026-05-03 21:00 36.02842 -115.27816 5854 ft 214 kts 197°
2026-05-03 21:00 36.00874 -115.28656 6209 ft 233 kts 193°
2026-05-03 21:00 35.99245 -115.28714 6448 ft 246 kts 166°
2026-05-03 21:01 35.97672 -115.27736 6723 ft 262 kts 142°
2026-05-03 21:01 35.96310 -115.26213 7220 ft 266 kts 141°
2026-05-03 21:01 35.94927 -115.24690 7785 ft 268 kts 141°
2026-05-03 21:01 35.93540 -115.23177 8338 ft 270 kts 141°
2026-05-03 21:02 35.92157 -115.21587 8880 ft 273 kts 136°
2026-05-03 21:02 35.90953 -115.19798 9435 ft 277 kts 129°
2026-05-03 21:02 35.89904 -115.17780 9973 ft 282 kts 125°
2026-05-03 21:02 35.88885 -115.15674 10424 ft 290 kts 124°
2026-05-03 21:03 35.87836 -115.13495 10693 ft 305 kts 123°
2026-05-03 21:03 35.86969 -115.11029 11061 ft 321 kts 108°
2026-05-03 21:03 35.86681 -115.08270 11641 ft 330 kts 93°
2026-05-03 21:03 35.86799 -115.05449 12258 ft 333 kts 90°
2026-05-03 21:04 35.86973 -115.02629 12851 ft 336 kts 89°
2026-05-03 21:04 35.87154 -114.99742 13441 ft 338 kts 89°
2026-05-03 21:04 35.87327 -114.96848 13986 ft 341 kts 90°
2026-05-03 21:04 35.87495 -114.93919 14508 ft 345 kts 90°
2026-05-03 21:05 35.87661 -114.90980 15024 ft 348 kts 90°
2026-05-03 21:05 35.87824 -114.88018 15549 ft 351 kts 90°
2026-05-03 21:05 35.87990 -114.84991 16056 ft 354 kts 90°
2026-05-03 21:05 35.88153 -114.81972 16550 ft 357 kts 90°
2026-05-03 21:06 35.88318 -114.78912 17025 ft 360 kts 90°
2026-05-03 21:06 35.88481 -114.75826 17514 ft 363 kts 90°
2026-05-03 21:06 35.88645 -114.72736 17995 ft 366 kts 90°
2026-05-03 21:06 35.88812 -114.69599 18426 ft 370 kts 90°
2026-05-03 21:07 35.88970 -114.66589 18820 ft 374 kts 90°
2026-05-03 21:07 35.89138 -114.63372 19240 ft 377 kts 90°
2026-05-03 21:07 35.89307 -114.60128 19618 ft 382 kts 90°
2026-05-03 21:07 35.89477 -114.56861 20045 ft 385 kts 90°
2026-05-03 21:08 35.89641 -114.53565 20437 ft 388 kts 91°
2026-05-03 21:08 35.89691 -114.50251 20818 ft 391 kts 94°
2026-05-03 21:08 35.89680 -114.46857 21195 ft 394 kts 95°
2026-05-03 21:08 35.89657 -114.43509 21554 ft 398 kts 95°
2026-05-03 21:09 35.89634 -114.40059 21912 ft 402 kts 95°
2026-05-03 21:09 35.89612 -114.36640 22249 ft 406 kts 95°
2026-05-03 21:09 35.89589 -114.33130 22624 ft 409 kts 96°
2026-05-03 21:09 35.89566 -114.29595 23000 ft 412 kts 95°
2026-05-03 21:10 35.89542 -114.26054 23338 ft 415 kts 95°
2026-05-03 21:10 35.89517 -114.22501 23650 ft 419 kts 95°
2026-05-03 21:10 35.89492 -114.18919 23911 ft 423 kts 95°
2026-05-03 21:10 35.89468 -114.15282 24187 ft 427 kts 95°
2026-05-03 21:11 35.89442 -114.11607 24449 ft 432 kts 95°
2026-05-03 21:11 35.89412 -114.07912 24711 ft 436 kts 95°
2026-05-03 21:11 35.89381 -114.04150 24952 ft 440 kts 95°
2026-05-03 21:11 35.89348 -114.00360 25204 ft 444 kts 95°
2026-05-03 21:12 35.89316 -113.96551 25443 ft 448 kts 95°
2026-05-03 21:12 35.89281 -113.92715 25696 ft 451 kts 95°
2026-05-03 21:12 35.89245 -113.88827 25976 ft 454 kts 95°
2026-05-03 21:12 35.89208 -113.84952 26221 ft 457 kts 95°
2026-05-03 21:13 35.89168 -113.81047 26453 ft 461 kts 95°
2026-05-03 21:13 35.89127 -113.77067 26707 ft 464 kts 95°
2026-05-03 21:13 35.89086 -113.73096 26941 ft 467 kts 95°
2026-05-03 21:13 35.89045 -113.69117 27186 ft 469 kts 95°
2026-05-03 21:14 35.89000 -113.65087 27422 ft 473 kts 95°
2026-05-03 21:14 35.88950 -113.61028 27651 ft 476 kts 95°
2026-05-03 21:14 35.88892 -113.56960 27884 ft 478 kts 96°
2026-05-03 21:14 35.88683 -113.52898 28129 ft 478 kts 101°
2026-05-03 21:15 35.88248 -113.48837 28368 ft 477 kts 105°
2026-05-03 21:15 35.87682 -113.44813 28585 ft 480 kts 105°
2026-05-03 21:15 35.87083 -113.40740 28826 ft 483 kts 106°
2026-05-03 21:15 35.86485 -113.36695 29043 ft 486 kts 105°
2026-05-03 21:16 35.85890 -113.32649 29262 ft 489 kts 106°
2026-05-03 21:16 35.85283 -113.28480 29511 ft 490 kts 106°
2026-05-03 21:16 35.84677 -113.24307 29731 ft 492 kts 106°
2026-05-03 21:16 35.84076 -113.20167 29937 ft 495 kts 106°
2026-05-03 21:17 35.83466 -113.15981 30165 ft 497 kts 106°
2026-05-03 21:17 35.83060 -113.13182 30322 ft 498 kts 105°
2026-05-03 21:17 35.82246 -113.07616 30612 ft 501 kts 105°
2026-05-03 21:17 35.81632 -113.03402 30821 ft 503 kts 105°
2026-05-03 21:18 35.81004 -112.99123 31042 ft 505 kts 105°
2026-05-03 21:18 35.80381 -112.94898 31209 ft 508 kts 105°
2026-05-03 21:18 35.79752 -112.90620 31452 ft 509 kts 105°
2026-05-03 21:18 35.79123 -112.86349 31785 ft 508 kts 105°
2026-05-03 21:19 35.78483 -112.82024 32026 ft 509 kts 105°
2026-05-03 21:19 35.77847 -112.77743 32197 ft 512 kts 105°
2026-05-03 21:19 35.77207 -112.73444 32372 ft 515 kts 104°
2026-05-03 21:19 35.76556 -112.69091 32542 ft 517 kts 104°
2026-05-03 21:20 35.75904 -112.64727 32714 ft 520 kts 104°
2026-05-03 21:20 35.75255 -112.60401 32885 ft 522 kts 104°
2026-05-03 21:20 35.74592 -112.55995 33063 ft 524 kts 104°
2026-05-03 21:20 35.73926 -112.51584 33250 ft 526 kts 104°
2026-05-03 21:21 35.73260 -112.47161 33413 ft 528 kts 104°
2026-05-03 21:21 35.72588 -112.42736 33580 ft 531 kts 104°
2026-05-03 21:21 35.71911 -112.38271 33751 ft 532 kts 104°
2026-05-03 21:21 35.71228 -112.33793 33940 ft 534 kts 104°
2026-05-03 21:22 35.70546 -112.29299 34213 ft 533 kts 104°
2026-05-03 21:22 35.69865 -112.24835 34511 ft 531 kts 104°
2026-05-03 21:22 35.69183 -112.20402 34763 ft 530 kts 105°
2026-05-03 21:22 35.68496 -112.15941 34961 ft 530 kts 105°
2026-05-03 21:23 35.67813 -112.11506 35209 ft 529 kts 105°
2026-05-03 21:23 35.67138 -112.07139 35457 ft 528 kts 105°
2026-05-03 21:23 35.66448 -112.02696 35679 ft 527 kts 104°
2026-05-03 21:23 35.65763 -111.98267 35869 ft 527 kts 105°
2026-05-03 21:24 35.65078 -111.93860 36089 ft 526 kts 105°
2026-05-03 21:24 35.64390 -111.89466 36302 ft 526 kts 104°
2026-05-03 21:24 35.63723 -111.85085 36455 ft 527 kts 103°
2026-05-03 21:24 35.63222 -111.80614 36606 ft 529 kts 98°
2026-05-03 21:25 35.62946 -111.76141 36765 ft 531 kts 95°
2026-05-03 21:25 35.62757 -111.71622 36943 ft 530 kts 95°
2026-05-03 21:25 35.62590 -111.67118 37108 ft 530 kts 95°
2026-05-03 21:25 35.62421 -111.62596 37135 ft 532 kts 94°
2026-05-03 21:26 35.62050 -111.53508 37131 ft 532 kts 94°
2026-05-03 21:26 35.61661 -111.44451 37128 ft 533 kts 95°
2026-05-03 21:27 35.61257 -111.35389 37118 ft 533 kts 95°
2026-05-03 21:27 35.60841 -111.26292 37109 ft 533 kts 95°
2026-05-03 21:28 35.60426 -111.17226 37109 ft 532 kts 95°
2026-05-03 21:28 35.60002 -111.08180 37116 ft 532 kts 95°
2026-05-03 21:29 35.59572 -110.99049 37121 ft 532 kts 95°
2026-05-03 21:29 35.59137 -110.90067 37117 ft 532 kts 95°
2026-05-03 21:30 35.58693 -110.80997 37120 ft 531 kts 95°
2026-05-03 21:30 35.58246 -110.71931 37124 ft 531 kts 95°
2026-05-03 21:31 35.57788 -110.62894 37130 ft 531 kts 95°
2026-05-03 21:31 35.57323 -110.53834 37132 ft 531 kts 95°
2026-05-03 21:32 35.56853 -110.44796 37136 ft 530 kts 95°
2026-05-03 21:32 35.56377 -110.35782 37144 ft 530 kts 95°
2026-05-03 21:33 35.55899 -110.26776 37151 ft 530 kts 96°
2026-05-03 21:33 35.55410 -110.17744 37158 ft 530 kts 96°
2026-05-03 21:34 35.54908 -110.08697 37159 ft 529 kts 96°
2026-05-03 21:34 35.54411 -109.99743 37158 ft 529 kts 95°
2026-05-03 21:35 35.53900 -109.90737 37162 ft 529 kts 96°
2026-05-03 21:35 35.53385 -109.81746 37165 ft 529 kts 96°
2026-05-03 21:36 35.52866 -109.72778 37172 ft 530 kts 95°
2026-05-03 21:36 35.52338 -109.63761 37175 ft 529 kts 95°
2026-05-03 21:37 35.51801 -109.54781 37187 ft 529 kts 95°
2026-05-03 21:37 35.51262 -109.45798 37198 ft 529 kts 96°
2026-05-03 21:38 35.50715 -109.36829 37215 ft 530 kts 95°
2026-05-03 21:38 35.50163 -109.27844 37220 ft 529 kts 96°
2026-05-03 21:39 35.49606 -109.18899 37225 ft 529 kts 96°
2026-05-03 21:39 35.49039 -109.09937 37220 ft 529 kts 96°
2026-05-03 21:40 35.48465 -109.00953 37216 ft 529 kts 96°
2026-05-03 21:40 35.47729 -108.91983 37221 ft 527 kts 101°
2026-05-03 21:41 35.46121 -108.83295 37230 ft 523 kts 110°
2026-05-03 21:41 35.43596 -108.74979 37235 ft 520 kts 117°
2026-05-03 21:42 35.40827 -108.66820 37230 ft 519 kts 117°
2026-05-03 21:42 35.38088 -108.58697 37227 ft 519 kts 117°
2026-05-03 21:43 35.35357 -108.50532 37239 ft 520 kts 116°
2026-05-03 21:43 35.32633 -108.42376 37246 ft 519 kts 117°
2026-05-03 21:44 35.29888 -108.34168 37253 ft 520 kts 117°
2026-05-03 21:44 35.27145 -108.25996 37260 ft 519 kts 117°
2026-05-03 21:45 35.24417 -108.17891 37260 ft 519 kts 117°
2026-05-03 21:45 35.21657 -108.09719 37249 ft 520 kts 117°
2026-05-03 21:46 35.18900 -108.01566 37239 ft 519 kts 117°
2026-05-03 21:46 35.16146 -107.93455 37249 ft 520 kts 117°
2026-05-03 21:47 35.13380 -107.85311 37250 ft 520 kts 117°
2026-05-03 21:47 35.10622 -107.77233 37243 ft 519 kts 117°
2026-05-03 21:48 35.07847 -107.69112 37234 ft 519 kts 117°
2026-05-03 21:48 35.05075 -107.61025 37243 ft 520 kts 117°
2026-05-03 21:49 35.02261 -107.52854 37234 ft 521 kts 117°
2026-05-03 21:49 34.99472 -107.44749 37214 ft 521 kts 116°
2026-05-03 21:50 34.96667 -107.36623 37206 ft 520 kts 116°
2026-05-03 21:50 34.93856 -107.28513 37197 ft 520 kts 117°
2026-05-03 21:51 34.91044 -107.20416 37191 ft 521 kts 118°
2026-05-03 21:51 34.88215 -107.12298 37178 ft 521 kts 118°
2026-05-03 21:52 34.85381 -107.04180 37161 ft 521 kts 117°
2026-05-03 21:52 34.82540 -106.96071 37149 ft 522 kts 117°
2026-05-03 21:53 34.79696 -106.87968 37144 ft 522 kts 117°
2026-05-03 21:53 34.76850 -106.79875 37137 ft 522 kts 117°
2026-05-03 21:54 34.73995 -106.71780 37124 ft 521 kts 117°
2026-05-03 21:54 34.71142 -106.63721 37137 ft 523 kts 117°
2026-05-03 21:55 34.68272 -106.55621 37165 ft 524 kts 117°
2026-05-03 21:55 34.65390 -106.47517 37176 ft 524 kts 117°
2026-05-03 21:56 34.62497 -106.39402 37182 ft 526 kts 117°
2026-05-03 21:56 34.59609 -106.31316 37174 ft 525 kts 117°
2026-05-03 21:57 34.56892 -106.23713 37186 ft 525 kts 118°
2026-05-03 21:57 34.53983 -106.15624 37188 ft 525 kts 118°
2026-05-03 21:58 34.51078 -106.07561 37178 ft 526 kts 117°
2026-05-03 21:58 34.48160 -105.99464 37188 ft 525 kts 117°
2026-05-03 21:59 34.45231 -105.91370 37183 ft 526 kts 117°
2026-05-03 21:59 34.42297 -105.83284 37182 ft 528 kts 117°
2026-05-03 22:00 34.39348 -105.75150 37192 ft 527 kts 117°
2026-05-03 22:00 34.36224 -105.67162 37184 ft 522 kts 123°
2026-05-03 22:01 34.32453 -105.59779 37185 ft 520 kts 129°
2026-05-03 22:01 34.28463 -105.52438 37186 ft 521 kts 128°
2026-05-03 22:02 34.24535 -105.45152 37178 ft 519 kts 128°
2026-05-03 22:02 34.20589 -105.37825 37179 ft 522 kts 128°
2026-05-03 22:03 34.16621 -105.30452 37174 ft 522 kts 129°
2026-05-03 22:03 34.12675 -105.23139 37156 ft 521 kts 128°
2026-05-03 22:04 34.08720 -105.15820 37160 ft 523 kts 129°
2026-05-03 22:04 34.04755 -105.08493 37146 ft 523 kts 129°
2026-05-03 22:05 34.00784 -105.01170 37144 ft 524 kts 129°
2026-05-03 22:05 33.96790 -104.93839 37141 ft 524 kts 129°
2026-05-03 22:06 33.92831 -104.86565 37138 ft 523 kts 129°
2026-05-03 22:06 33.89658 -104.80758 37131 ft 525 kts 129°
2026-05-03 22:07 33.85648 -104.73419 37125 ft 524 kts 129°
2026-05-03 22:07 33.81644 -104.66115 37124 ft 525 kts 128°
2026-05-03 22:08 33.77620 -104.58767 37115 ft 524 kts 128°
2026-05-03 22:08 33.73607 -104.51479 37112 ft 525 kts 128°
2026-05-03 22:09 33.69610 -104.44219 37105 ft 524 kts 129°
2026-05-03 22:10 33.63600 -104.33338 37091 ft 523 kts 129°
2026-05-03 22:10 33.59551 -104.26033 37096 ft 523 kts 129°
2026-05-03 22:11 33.55555 -104.18833 37097 ft 523 kts 129°
2026-05-03 22:11 33.51508 -104.11556 37098 ft 523 kts 129°
2026-05-03 22:12 33.47489 -104.04352 37103 ft 524 kts 129°
2026-05-03 22:12 33.43444 -103.97101 37100 ft 525 kts 129°
2026-05-03 22:13 33.39402 -103.89874 37104 ft 525 kts 129°
2026-05-03 22:13 33.35326 -103.82604 37107 ft 525 kts 129°
2026-05-03 22:14 33.31282 -103.75400 37107 ft 525 kts 129°
2026-05-03 22:14 33.27209 -103.68164 37111 ft 526 kts 129°
2026-05-03 22:15 33.23132 -103.60928 37109 ft 525 kts 128°
2026-05-03 22:15 33.19056 -103.53716 37110 ft 526 kts 128°
2026-05-03 22:16 33.14945 -103.46453 37118 ft 528 kts 129°
2026-05-03 22:16 33.10873 -103.39266 37110 ft 526 kts 129°
2026-05-03 22:17 33.06831 -103.32152 37102 ft 526 kts 129°
2026-05-03 22:17 33.02725 -103.24942 37104 ft 527 kts 129°
2026-05-03 22:18 32.98649 -103.17799 37107 ft 526 kts 128°
2026-05-03 22:18 32.94524 -103.10574 37108 ft 526 kts 128°
2026-05-03 22:19 32.90427 -103.03415 37108 ft 526 kts 129°
2026-05-03 22:19 32.86306 -102.96227 37107 ft 525 kts 129°
2026-05-03 22:20 32.82196 -102.89088 37104 ft 525 kts 129°
2026-05-03 22:20 32.78067 -102.81922 37103 ft 527 kts 129°
2026-05-03 22:21 32.73934 -102.74752 37108 ft 526 kts 129°
2026-05-03 22:21 32.69796 -102.67606 37112 ft 527 kts 128°
2026-05-03 22:22 32.65678 -102.60484 37132 ft 526 kts 128°
2026-05-03 22:22 32.61520 -102.53326 37122 ft 526 kts 128°
2026-05-03 22:23 32.57381 -102.46201 37098 ft 525 kts 128°
2026-05-03 22:23 32.53245 -102.39100 37087 ft 525 kts 128°
2026-05-03 22:24 32.49118 -102.32031 37078 ft 525 kts 128°
2026-05-03 22:24 32.44944 -102.24894 37079 ft 524 kts 129°
2026-05-03 22:25 32.40803 -102.17834 37078 ft 524 kts 129°
2026-05-03 22:25 32.36673 -102.10792 37079 ft 524 kts 128°
2026-05-03 22:26 32.32523 -102.03725 37075 ft 523 kts 129°
2026-05-03 22:26 32.28370 -101.96687 37078 ft 524 kts 128°
2026-05-03 22:27 32.24214 -101.89636 37075 ft 524 kts 129°
2026-05-03 22:27 32.20068 -101.82628 37076 ft 522 kts 128°
2026-05-03 22:28 32.15919 -101.75616 37074 ft 522 kts 128°
2026-05-03 22:28 32.11741 -101.68582 37075 ft 523 kts 128°
2026-05-03 22:29 32.07567 -101.61566 37080 ft 524 kts 128°
2026-05-03 22:29 32.03419 -101.54593 37080 ft 523 kts 128°
2026-05-03 22:30 31.99231 -101.47573 37080 ft 524 kts 128°
2026-05-03 22:30 31.95042 -101.40570 37076 ft 523 kts 128°
2026-05-03 22:31 31.90863 -101.33591 37073 ft 524 kts 129°
2026-05-03 22:31 31.86634 -101.26544 37076 ft 524 kts 128°
2026-05-03 22:32 31.82434 -101.19559 37082 ft 524 kts 128°
2026-05-03 22:32 31.78234 -101.12582 37086 ft 524 kts 129°
2026-05-03 22:33 31.74040 -101.05629 37086 ft 524 kts 128°
2026-05-03 22:33 31.69815 -100.98640 37082 ft 524 kts 128°
2026-05-03 22:34 31.65603 -100.91683 37086 ft 524 kts 128°
2026-05-03 22:34 31.61384 -100.84727 37089 ft 524 kts 128°
2026-05-03 22:35 31.57153 -100.77763 37080 ft 524 kts 128°
2026-05-03 22:35 31.52930 -100.70818 37082 ft 525 kts 128°
2026-05-03 22:36 31.48709 -100.63889 37080 ft 525 kts 128°
2026-05-03 22:36 31.44474 -100.56944 37080 ft 524 kts 128°
2026-05-03 22:37 31.40353 -100.49932 37086 ft 526 kts 123°
2026-05-03 22:37 31.36980 -100.42394 37076 ft 528 kts 112°
2026-05-03 22:38 31.34539 -100.34302 37086 ft 526 kts 105°
2026-05-03 22:38 31.32567 -100.26105 37080 ft 526 kts 104°
2026-05-03 22:39 31.30570 -100.17887 37084 ft 526 kts 104°
2026-05-03 22:39 31.28542 -100.09715 37083 ft 526 kts 104°
2026-05-03 22:40 31.26488 -100.01521 37079 ft 527 kts 104°
2026-05-03 22:40 31.24431 -99.93348 37087 ft 527 kts 105°
2026-05-03 22:41 31.22356 -99.85105 37085 ft 527 kts 104°
2026-05-03 22:41 31.20291 -99.76962 37084 ft 527 kts 104°
2026-05-03 22:42 31.18221 -99.68798 37084 ft 527 kts 104°
2026-05-03 22:42 31.16140 -99.60606 37088 ft 527 kts 104°
2026-05-03 22:43 31.14047 -99.52412 37086 ft 527 kts 104°
2026-05-03 22:43 31.11957 -99.44243 37087 ft 528 kts 104°
2026-05-03 22:44 31.09852 -99.36044 37089 ft 528 kts 104°
2026-05-03 22:44 31.07747 -99.27852 37088 ft 530 kts 104°
2026-05-03 22:45 31.05622 -99.19618 37083 ft 530 kts 104°
2026-05-03 22:45 31.03493 -99.11388 37079 ft 530 kts 104°
2026-05-03 22:46 31.01372 -99.03210 37081 ft 530 kts 104°
2026-05-03 22:46 30.99244 -98.95023 37087 ft 530 kts 104°
2026-05-03 22:47 30.97118 -98.86817 37098 ft 531 kts 102°
2026-05-03 22:47 30.95547 -98.78492 37097 ft 526 kts 95°
2026-05-03 22:48 30.94411 -98.70097 37100 ft 525 kts 94°
2026-05-03 22:48 30.93281 -98.61714 37103 ft 526 kts 94°
2026-05-03 22:49 30.92115 -98.53313 37099 ft 526 kts 94°
2026-05-03 22:49 30.90941 -98.44936 37098 ft 527 kts 94°
2026-05-03 22:50 30.89755 -98.36567 37093 ft 527 kts 95°
2026-05-03 22:50 30.88558 -98.28126 37100 ft 526 kts 95°
2026-05-03 22:51 30.87355 -98.19673 37107 ft 528 kts 95°
2026-05-03 22:51 30.86153 -98.11292 37100 ft 528 kts 95°
2026-05-03 22:52 30.84950 -98.02908 37006 ft 529 kts 94°
2026-05-03 22:52 30.84338 -97.98679 36423 ft 529 kts 95°
2026-05-03 22:52 30.83735 -97.94516 35813 ft 527 kts 95°
2026-05-03 22:52 30.83123 -97.90315 35221 ft 524 kts 95°
2026-05-03 22:53 30.82514 -97.86187 34597 ft 522 kts 96°
2026-05-03 22:53 30.81904 -97.82055 33992 ft 520 kts 95°
2026-05-03 22:53 30.81291 -97.77912 33363 ft 518 kts 96°
2026-05-03 22:53 30.80687 -97.73805 32742 ft 519 kts 96°
2026-05-03 22:54 30.80081 -97.69702 32109 ft 519 kts 96°
2026-05-03 22:54 30.79466 -97.65561 31572 ft 516 kts 97°
2026-05-03 22:54 30.78851 -97.61455 31165 ft 511 kts 97°
2026-05-03 22:54 30.78249 -97.57436 30733 ft 507 kts 96°
2026-05-03 22:55 30.77658 -97.53448 30308 ft 503 kts 97°
2026-05-03 22:55 30.77062 -97.49478 29880 ft 499 kts 97°
2026-05-03 22:55 30.76467 -97.45503 29431 ft 495 kts 97°
2026-05-03 22:55 30.75881 -97.41602 29003 ft 492 kts 96°
2026-05-03 22:56 30.75297 -97.37727 28586 ft 489 kts 97°
2026-05-03 22:56 30.74714 -97.33845 28160 ft 485 kts 97°
2026-05-03 22:56 30.74134 -97.30002 27760 ft 480 kts 97°
2026-05-03 22:56 30.73575 -97.26307 27372 ft 476 kts 98°
2026-05-03 22:57 30.73004 -97.22540 26964 ft 472 kts 97°
2026-05-03 22:57 30.72435 -97.18792 26559 ft 468 kts 98°
2026-05-03 22:57 30.71876 -97.15115 26168 ft 464 kts 98°
2026-05-03 22:57 30.71314 -97.11433 25780 ft 459 kts 98°
2026-05-03 22:58 30.70766 -97.07832 25382 ft 456 kts 98°
2026-05-03 22:58 30.70209 -97.04202 24971 ft 452 kts 98°
2026-05-03 22:58 30.69663 -97.00666 24577 ft 449 kts 98°
2026-05-03 22:58 30.69112 -96.97087 24162 ft 445 kts 98°
2026-05-03 22:59 30.68570 -96.93584 23771 ft 441 kts 98°
2026-05-03 22:59 30.68036 -96.90125 23389 ft 437 kts 98°
2026-05-03 22:59 30.67497 -96.86639 22984 ft 433 kts 98°
2026-05-03 22:59 30.66976 -96.83260 22582 ft 430 kts 98°
2026-05-03 23:00 30.66450 -96.79869 22169 ft 427 kts 98°
2026-05-03 23:00 30.65921 -96.76474 21750 ft 423 kts 98°
2026-05-03 23:00 30.65399 -96.73126 21338 ft 420 kts 98°
2026-05-03 23:00 30.64886 -96.69849 20926 ft 416 kts 98°
2026-05-03 23:01 30.64366 -96.66552 20523 ft 413 kts 98°
2026-05-03 23:01 30.63852 -96.63301 20100 ft 410 kts 98°
2026-05-03 23:01 30.63341 -96.60065 19704 ft 406 kts 98°
2026-05-03 23:01 30.62833 -96.56845 19290 ft 403 kts 98°
2026-05-03 23:02 30.62335 -96.53687 18896 ft 399 kts 98°
2026-05-03 23:02 30.61835 -96.50536 18494 ft 396 kts 98°
2026-05-03 23:02 30.61336 -96.47400 18087 ft 393 kts 98°
2026-05-03 23:02 30.60826 -96.44318 17677 ft 391 kts 101°
2026-05-03 23:03 30.59913 -96.41364 17254 ft 390 kts 115°
2026-05-03 23:03 30.58471 -96.38685 16843 ft 387 kts 125°
2026-05-03 23:03 30.56895 -96.36224 16451 ft 383 kts 127°
2026-05-03 23:03 30.55269 -96.33742 16038 ft 380 kts 127°
2026-05-03 23:04 30.53690 -96.31303 15646 ft 375 kts 127°
2026-05-03 23:04 30.52156 -96.28904 15247 ft 371 kts 126°
2026-05-03 23:04 30.51218 -96.27427 14997 ft 369 kts 126°
2026-05-03 23:04 30.50054 -96.25591 14707 ft 360 kts 126°
2026-05-03 23:05 30.48598 -96.23294 14335 ft 349 kts 126°
2026-05-03 23:05 30.47166 -96.21037 13972 ft 348 kts 126°
2026-05-03 23:05 30.45740 -96.18787 13578 ft 345 kts 126°
2026-05-03 23:05 30.44325 -96.16555 13168 ft 343 kts 126°
2026-05-03 23:06 30.42912 -96.14327 12773 ft 340 kts 126°
2026-05-03 23:06 30.41517 -96.12131 12377 ft 339 kts 126°
2026-05-03 23:06 30.40128 -96.09944 11979 ft 337 kts 126°
2026-05-03 23:06 30.38728 -96.07745 11573 ft 336 kts 126°
2026-05-03 23:07 30.37353 -96.05584 11279 ft 329 kts 127°
2026-05-03 23:07 30.35812 -96.03736 11090 ft 319 kts 145°
2026-05-03 23:07 30.33831 -96.02608 10774 ft 312 kts 162°
2026-05-03 23:07 30.31774 -96.01860 10416 ft 310 kts 164°
2026-05-03 23:08 30.29716 -96.01149 10056 ft 307 kts 164°
2026-05-03 23:08 30.27685 -96.00438 9696 ft 305 kts 164°
2026-05-03 23:08 30.25646 -95.99709 9334 ft 302 kts 163°
2026-05-03 23:08 30.23657 -95.98986 8981 ft 300 kts 163°
2026-05-03 23:09 30.21666 -95.98257 8629 ft 297 kts 163°
2026-05-03 23:09 30.19711 -95.97540 8279 ft 294 kts 162°
2026-05-03 23:09 30.17773 -95.96828 7983 ft 289 kts 162°
2026-05-03 23:09 30.15894 -95.96137 7936 ft 274 kts 162°
2026-05-03 23:10 30.14129 -95.95486 7931 ft 258 kts 162°
2026-05-03 23:10 30.12449 -95.94865 7928 ft 246 kts 162°
2026-05-03 23:10 30.10849 -95.94273 7929 ft 239 kts 162°
2026-05-03 23:10 30.09270 -95.93688 7940 ft 240 kts 162°
2026-05-03 23:11 30.07670 -95.93097 7942 ft 240 kts 162°
2026-05-03 23:11 30.06084 -95.92511 7943 ft 240 kts 162°
2026-05-03 23:11 30.04497 -95.91926 7949 ft 239 kts 162°
2026-05-03 23:11 30.02911 -95.91280 7940 ft 241 kts 152°
2026-05-03 23:12 30.01606 -95.90094 7935 ft 240 kts 128°
2026-05-03 23:12 30.00617 -95.88560 7950 ft 240 kts 124°
2026-05-03 23:12 29.99666 -95.86949 7947 ft 239 kts 122°
2026-05-03 23:12 29.98772 -95.85334 7952 ft 238 kts 118°
2026-05-03 23:13 29.98321 -95.83546 7862 ft 234 kts 88°
2026-05-03 23:13 29.98615 -95.81696 7543 ft 235 kts 73°
2026-05-03 23:13 29.99015 -95.79901 7233 ft 233 kts 80°
2026-05-03 23:13 29.99204 -95.78055 6979 ft 228 kts 86°
2026-05-03 23:14 29.99292 -95.76228 6936 ft 228 kts 88°
2026-05-03 23:14 29.99345 -95.74413 6760 ft 227 kts 89°
2026-05-03 23:14 29.99375 -95.72633 6607 ft 209 kts 90°
2026-05-03 23:14 29.99389 -95.71004 6229 ft 201 kts 90°
2026-05-03 23:15 29.99394 -95.69443 5871 ft 191 kts 90°
2026-05-03 23:15 29.99393 -95.67946 5452 ft 187 kts 91°
2026-05-03 23:15 29.99389 -95.66483 5108 ft 177 kts 91°
2026-05-03 23:15 29.99385 -95.65114 4841 ft 162 kts 91°
2026-05-03 23:16 29.99380 -95.63893 4612 ft 149 kts 91°
2026-05-03 23:16 29.99375 -95.62704 4430 ft 148 kts 91°
2026-05-03 23:16 29.99370 -95.61513 4257 ft 147 kts 91°
2026-05-03 23:16 29.99365 -95.60335 4080 ft 147 kts 91°
2026-05-03 23:17 29.99361 -95.59154 3903 ft 146 kts 91°
2026-05-03 23:17 29.99357 -95.57988 3726 ft 146 kts 91°
2026-05-03 23:17 29.99354 -95.56811 3549 ft 146 kts 91°
2026-05-03 23:17 29.99352 -95.55644 3365 ft 145 kts 91°
2026-05-03 23:18 29.99350 -95.54479 3182 ft 145 kts 91°
2026-05-03 23:18 29.99348 -95.53320 3284 ft 144 kts 91°
2026-05-03 23:18 29.99339 -95.52165 3218 ft 146 kts 90°
2026-05-03 23:18 29.99355 -95.50990 2906 ft 145 kts 90°
2026-05-03 23:19 29.99377 -95.49839 2560 ft 144 kts 91°
2026-05-03 23:19 29.99389 -95.48699 2271 ft 143 kts 91°
2026-05-03 23:19 29.99403 -95.47549 2078 ft 143 kts 90°
2026-05-03 23:19 29.99417 -95.46401 1957 ft 143 kts 92°
2026-05-03 23:20 29.99418 -95.45256 1897 ft 143 kts 91°
2026-05-03 23:20 29.99425 -95.44112 1832 ft 143 kts 92°
2026-05-03 23:20 29.99412 -95.42951 1690 ft 143 kts 92°
2026-05-03 23:20 29.99385 -95.41808 1433 ft 143 kts 94°
2026-05-03 23:21 29.99361 -95.40688 1117 ft 141 kts 92°
2026-05-03 23:21 29.99364 -95.39561 861 ft 140 kts 91°
2026-05-03 23:21 29.99366 -95.38432 657 ft 139 kts 92°
2026-05-03 23:21 29.99360 -95.37317 465 ft 139 kts 92°
2026-05-03 23:22 29.99343 -95.35104 123 ft 137 kts 90°
2026-05-03 23:22 29.99344 -95.34100 101 ft 104 kts 91°
2026-05-03 23:22 29.99344 -95.33503 101 ft 36 kts 90°
2026-05-03 23:23 29.99278 -95.33227 100 ft 27 kts 118°
2026-05-03 23:23 29.99211 -95.33147 100 ft 9 kts 192°
2026-05-03 23:23 29.99177 -95.33218 100 ft 11 kts 268°
2026-05-03 23:23 29.99176 -95.33328 100 ft 17 kts 271°
2026-05-03 23:24 29.99177 -95.33492 101 ft 21 kts 270°
2026-05-03 23:24 29.99169 -95.33645 101 ft 15 kts 242°
2026-05-03 23:24 29.99081 -95.33698 101 ft 14 kts 199°
2026-05-03 23:24 29.99000 -95.33730 101 ft 9 kts 204°
2026-05-03 23:25 29.98974 -95.33768 101 ft 2 kts 259°
2026-05-03 23:25 29.98973 -95.33791 101 ft 3 kts 268°
2026-05-03 23:25 29.98973 -95.33798 101 ft 0 kts 268°
2026-05-03 23:25 29.98973 -95.33803 101 ft 0 kts 268°